Weather History for Port Huron, MI

Change the Weather History Date:

Saturday, February 9, 2013

  Actual Average (KMTC) Record (KMTC)
Temperature  
Mean Temperature 20 °F -  
Max Temperature 30 °F 31 °F 55 °F (2001)
Min Temperature 10 °F 16 °F -4 °F (1979)
Degree Days  
Heating Degree Days 45    
Moisture  
Dew Point 16 °F    
Average Humidity 82    
Maximum Humidity 93    
Minimum Humidity 60    
Precipitation  
Precipitation 0.00 in - - ()
Sea Level Pressure  
Sea Level Pressure 30.36 in    
Wind  
Wind Speed 6 mph (SW)    
Max Wind Speed 9 mph    
Max Gust Speed -    
Visibility 9 miles    
Events Snow    
Averages and records for this station are not official NWS values.
T = Trace of Precipitation, MM = Missing Value Source: NWS Daily Summary

Daily Weather History Graph

Daily Weather History Graph

Search for Another Location

Airport:

Trip Planner

Search our weather history database for the weather conditions in past years. The results will help you decide how hot, cold, wet, or windy it might be!

Date:

Astronomy

Feb. 09, 2013 Rise Set
Actual Time 7:35 AM EST 5:54 PM EST
Civil Twilight 7:05 AM EST 6:23 PM EST
Nautical Twilight 6:32 AM EST 6:56 PM EST
Astronomical Twilight 5:59 AM EST 7:29 PM EST
Moon 6:45 AM EST (2/9) 5:36 PM EST (2/9)
Length of Visible Light 11h 17m
Length of Day
10h 18m
Waning Crescent, 0% of the Moon is Illuminated
Feb 9
Waning Crescent
Feb 10
New
Feb 17
First Quarter
Feb 25
Full
Mar 4
Last Quarter

Hourly Weather History & Observations

Time (EST) Temp. Windchill Dew Point Humidity Pressure Visibility Wind Dir Wind Speed Gust Speed Precip Events Conditions
12:18 AM 24.8 °F 16.1 °F 19.4 °F 80% 30.29 in 3.0 mi NW 8.1 mph - N/A Snow Light Snow
12:38 AM 23.0 °F 15.8 °F 19.4 °F 86% 30.31 in 3.0 mi NW 5.8 mph - N/A Snow Light Snow
12:58 AM 23.0 °F 13.9 °F 19.4 °F 86% 30.32 in 3.0 mi WNW 8.1 mph - N/A Snow Light Snow
1:18 AM 23.0 °F 13.9 °F 19.4 °F 86% 30.32 in 3.0 mi NW 8.1 mph - N/A Snow Light Snow
1:38 AM 23.0 °F 13.1 °F 19.4 °F 86% 30.32 in 3.0 mi NW 9.2 mph - N/A Snow Light Snow
1:58 AM 21.2 °F 11.7 °F 17.6 °F 86% 30.31 in 2.5 mi NW 8.1 mph - N/A Snow Light Snow
2:18 AM 21.2 °F 12.6 °F 17.6 °F 86% 30.32 in 4.0 mi WNW 6.9 mph - N/A Snow Light Snow
2:38 AM 19.4 °F 10.4 °F 15.8 °F 86% 30.33 in 10.0 mi WNW 6.9 mph - N/A   Scattered Clouds
2:58 AM 17.6 °F 9.3 °F 15.8 °F 93% 30.33 in 10.0 mi WNW 5.8 mph - N/A   Clear
3:18 AM 17.6 °F 8.2 °F 15.8 °F 93% 30.34 in 10.0 mi WNW 6.9 mph - N/A   Scattered Clouds
3:38 AM 17.6 °F 8.2 °F 15.8 °F 93% 30.34 in 10.0 mi WNW 6.9 mph - N/A   Mostly Cloudy
3:58 AM 17.6 °F 8.2 °F 14.0 °F 86% 30.35 in 10.0 mi WNW 6.9 mph - N/A   Mostly Cloudy
4:18 AM 17.6 °F 9.3 °F 14.0 °F 86% 30.35 in 7.0 mi WNW 5.8 mph - N/A Snow Light Snow
4:38 AM 15.8 °F 6.1 °F 14.0 °F 93% 30.35 in 7.0 mi NW 6.9 mph - N/A Snow Light Snow
4:58 AM 15.8 °F 7.2 °F 14.0 °F 93% 30.36 in 10.0 mi NW 5.8 mph - N/A   Scattered Clouds
5:18 AM 15.8 °F 7.2 °F 12.2 °F 86% 30.37 in 10.0 mi NW 5.8 mph - N/A   Clear
5:38 AM 15.8 °F 7.2 °F 12.2 °F 86% 30.37 in 10.0 mi WNW 5.8 mph - N/A   Clear
6:18 AM 12.2 °F 4.3 °F 10.4 °F 92% 30.38 in 10.0 mi WNW 4.6 mph - N/A   Clear
6:38 AM 14.0 °F 5.1 °F 10.4 °F 86% 30.39 in 10.0 mi WNW 5.8 mph - N/A   Clear
6:58 AM 12.2 °F 2.9 °F 10.4 °F 92% 30.39 in 10.0 mi WNW 5.8 mph - N/A   Clear
7:18 AM 10.4 °F 0.8 °F 8.6 °F 92% 30.39 in 10.0 mi WNW 5.8 mph - N/A   Clear
7:38 AM 12.2 °F 2.9 °F 8.6 °F 85% 30.40 in 10.0 mi WNW 5.8 mph - N/A   Clear
7:58 AM 12.2 °F 2.9 °F 8.6 °F 85% 30.41 in 10.0 mi WNW 5.8 mph - N/A   Clear
8:18 AM 10.4 °F 2.2 °F 8.6 °F 92% 30.41 in 10.0 mi WNW 4.6 mph - N/A   Clear
8:38 AM 12.2 °F 2.9 °F 8.6 °F 85% 30.42 in 10.0 mi WNW 5.8 mph - N/A   Clear
8:58 AM 12.2 °F 6.1 °F 10.4 °F 92% 30.42 in 10.0 mi WNW 3.5 mph - N/A   Clear
9:18 AM 14.0 °F 6.5 °F 12.2 °F 93% 30.42 in 10.0 mi WNW 4.6 mph - N/A   Scattered Clouds
9:38 AM 15.8 °F - 14.0 °F 93% 30.42 in 10.0 mi Calm Calm - N/A   Mostly Cloudy
9:58 AM 17.6 °F 12.3 °F 14.0 °F 86% 30.42 in 10.0 mi WNW 3.5 mph - N/A   Overcast
10:18 AM 19.4 °F 14.3 °F 17.6 °F 93% 30.42 in 10.0 mi West 3.5 mph - N/A   Overcast
10:38 AM 21.2 °F - 17.6 °F 86% 30.42 in 10.0 mi Calm Calm - N/A   Overcast
10:58 AM 23.0 °F - 17.6 °F 80% 30.43 in 10.0 mi Calm Calm - N/A   Mostly Cloudy
11:18 AM 24.8 °F - 17.6 °F 74% 30.43 in 10.0 mi Calm Calm - N/A   Overcast
11:38 AM 24.8 °F - 17.6 °F 74% 30.42 in 10.0 mi Calm Calm - N/A   Mostly Cloudy
11:58 AM 26.6 °F - 19.4 °F 74% 30.42 in 10.0 mi Calm Calm - N/A   Clear
12:18 PM 28.4 °F - 19.4 °F 69% 30.41 in 10.0 mi Calm Calm - N/A   Clear
12:38 PM 28.4 °F - 19.4 °F 69% 30.41 in 10.0 mi Calm Calm - N/A   Clear
12:58 PM 28.4 °F - 17.6 °F 64% 30.41 in 10.0 mi Calm Calm - N/A   Clear
1:18 PM 30.2 °F - 19.4 °F 64% 30.40 in 10.0 mi Calm Calm - N/A   Clear
1:38 PM 30.2 °F - 19.4 °F 64% 30.39 in 10.0 mi Calm Calm - N/A   Clear
1:58 PM 30.2 °F 25.4 °F 19.4 °F 64% 30.38 in 10.0 mi East 4.6 mph - N/A   Scattered Clouds
2:18 PM 30.2 °F 26.7 °F 19.4 °F 64% 30.38 in 10.0 mi SE 3.5 mph - N/A   Scattered Clouds
2:38 PM 30.2 °F 22.6 °F 17.6 °F 60% 30.37 in 10.0 mi South 8.1 mph - N/A   Scattered Clouds
2:58 PM 30.2 °F 23.4 °F 19.4 °F 64% 30.37 in 10.0 mi SE 6.9 mph - N/A   Clear
3:18 PM 30.2 °F 23.4 °F 19.4 °F 64% 30.36 in 10.0 mi SE 6.9 mph - N/A   Clear
3:38 PM 30.2 °F 23.4 °F 19.4 °F 64% 30.36 in 10.0 mi SE 6.9 mph - N/A   Clear
3:58 PM 30.2 °F 21.9 °F 19.4 °F 64% 30.36 in 10.0 mi SE 9.2 mph - N/A   Clear
4:18 PM 30.2 °F 23.4 °F 19.4 °F 64% 30.36 in 10.0 mi SE 6.9 mph - N/A   Clear
4:38 PM 28.4 °F 19.7 °F 19.4 °F 69% 30.35 in 10.0 mi South 9.2 mph - N/A   Clear
4:58 PM 28.4 °F 20.4 °F 19.4 °F 69% 30.35 in 10.0 mi SSE 8.1 mph - N/A   Clear
5:18 PM 26.6 °F 19.1 °F 19.4 °F 74% 30.35 in 10.0 mi SSE 6.9 mph - N/A   Clear
5:38 PM 26.6 °F 19.1 °F 19.4 °F 74% 30.35 in 10.0 mi SSE 6.9 mph - N/A   Clear
5:58 PM 24.8 °F 17.9 °F 19.4 °F 80% 30.35 in 10.0 mi SSE 5.8 mph - N/A   Clear
6:18 PM 24.8 °F 19.1 °F 17.6 °F 74% 30.36 in 10.0 mi SSE 4.6 mph - N/A   Clear
6:38 PM 24.8 °F 19.1 °F 17.6 °F 74% 30.36 in 10.0 mi SSE 4.6 mph - N/A   Clear
6:58 PM 23.0 °F 15.8 °F 17.6 °F 80% 30.36 in 10.0 mi SSE 5.8 mph - N/A   Clear
7:18 PM 23.0 °F 17.0 °F 17.6 °F 80% 30.35 in 10.0 mi SSE 4.6 mph - N/A   Clear
7:38 PM 21.2 °F 13.6 °F 19.4 °F 93% 30.35 in 10.0 mi SSE 5.8 mph - N/A   Clear
7:58 PM 21.2 °F 14.9 °F 17.6 °F 86% 30.34 in 10.0 mi South 4.6 mph - N/A   Clear
8:18 PM 21.2 °F 13.6 °F 17.6 °F 86% 30.34 in 10.0 mi SSE 5.8 mph - N/A   Clear
8:38 PM 21.2 °F 16.4 °F 17.6 °F 86% 30.34 in 10.0 mi South 3.5 mph - N/A   Clear
8:58 PM 17.6 °F 12.3 °F 15.8 °F 93% 30.34 in 10.0 mi SSE 3.5 mph - N/A   Clear
9:18 PM 17.6 °F 12.3 °F 15.8 °F 93% 30.33 in 10.0 mi SE 3.5 mph - N/A   Clear
9:38 PM 15.8 °F 8.6 °F 14.0 °F 93% 30.33 in 7.0 mi SSE 4.6 mph - N/A   Clear
9:58 PM 17.6 °F 10.7 °F 15.8 °F 93% 30.33 in 5.0 mi SSE 4.6 mph - N/A   Clear
10:18 PM 19.4 °F 12.8 °F 17.6 °F 93% 30.32 in 7.0 mi SE 4.6 mph - N/A   Clear
10:38 PM 17.6 °F 12.3 °F 15.8 °F 93% 30.31 in 7.0 mi SE 3.5 mph - N/A   Clear
10:58 PM 17.6 °F 12.3 °F 15.8 °F 93% 30.31 in 7.0 mi SSE 3.5 mph - N/A   Clear
11:18 PM 14.0 °F 8.2 °F 12.2 °F 93% 30.31 in 5.0 mi SE 3.5 mph - N/A   Clear
11:38 PM 12.2 °F - 10.4 °F 92% 30.31 in 5.0 mi Calm Calm - N/A   Clear
11:58 PM 12.2 °F 6.1 °F 10.4 °F 92% 30.30 in 5.0 mi SE 3.5 mph - N/A   Clear